Location: Carr Mill
(33.2054°N, 85.9439°W)
Time: 01:00:55
(UTC+00:00)

Nauka - Visible Passes

Search period start: 18 September 2021 00:00
Search period end: 28 September 2021 00:00
Orbit: 419 x 423 km, 51.6° (Epoch: 17 September)

Date Brightness Start Highest point End Pass type
(mag) Time Alt. Az. Time Alt. Az. Time Alt. Az.
18 Sep ? 00:11:21 10° SW 00:14:43 89° NNW 00:18:05 10° NE visible
18 Sep ? 01:50:50 10° NW 01:51:59 11° NNW 01:53:08 10° N visible
19 Sep ? 01:02:37 10° WNW 01:04:53 17° NNW 01:07:09 10° N visible
20 Sep ? 00:14:59 10° W 00:17:51 25° NW 00:20:44 10° NNE visible
22 Sep ? 00:20:20 10° NW 00:21:16 11° NNW 00:22:12 10° NNW visible
